WetterOnline ( http://www.wetteronline.de )

Wetter aktuell Bad Reichenhall

Aktuelles Wetter: Salzburg Flughafen (450m)

6-stündlich | Neueste Meldungen
Ortszeit Temperatur Wetter
Di, 19.03. 19:00 4.5° C bewölkt
Di, 19.03. 13:00 6.0° C bewölkt
Di, 19.03. 7:00 1.1° C bewölkt
Di, 19.03. 1:00 2.4° C wolkig
Mo, 18.03. 19:00 3.2° C wolkig
Mo, 18.03. 13:00 3.5° C bewölkt
Mo, 18.03. 7:00 2.9° C bedeckt
Mo, 18.03. 1:00 4.0° C bedeckt
Ortszeit Temperatur Wetter
Mi, 20.03. 0:20 2° C bedeckt
Mi, 20.03. 0:00 2.2° C bedeckt
Di, 19.03. 23:50 2° C bedeckt
Di, 19.03. 23:20 2° C bewölkt
Di, 19.03. 23:00 2.3° C bewölkt
Di, 19.03. 22:50 2° C bewölkt
Di, 19.03. 22:20 3° C bewölkt
Di, 19.03. 22:00 2.7° C wolkig
Di, 19.03. 21:20 3° C bewölkt
Di, 19.03. 21:00 3.1° C wolkig
Ortszeit Relative Feuchte Sichtweite
Di, 19.03. 19:00 66% 45 km
Di, 19.03. 13:00 68% 40 km
Di, 19.03. 7:00 92% 35 km
Di, 19.03. 1:00 82% 50 km
Mo, 18.03. 19:00 77% 50 km
Mo, 18.03. 13:00 82% 65 km
Mo, 18.03. 7:00 77% 65 km
Mo, 18.03. 1:00 81% >70 km
Ortszeit Relative Feuchte Sichtweite
Mi, 20.03. 0:20 80% >10 km
Mi, 20.03. 0:00 80% 35 km
Di, 19.03. 23:50 80% >10 km
Di, 19.03. 23:20 80% >10 km
Di, 19.03. 23:00 79% 30 km
Di, 19.03. 22:50 80% >10 km
Di, 19.03. 22:20 75% >10 km
Di, 19.03. 22:00 75% 40 km
Di, 19.03. 21:20 75% >10 km
Di, 19.03. 21:00 73% 35 km
Ortszeit Niederschlagsmenge Niederschlagsart
Di, 19.03. 19:00 0.1 l/m2 in 12 Std. -
Di, 19.03. 13:00 0.1 l/m2 in 6 Std. -
Di, 19.03. 7:00 0.2 l/m2 in 12 Std. -
Di, 19.03. 1:00 keine Meldung -
Mo, 18.03. 19:00 1 l/m2 in 12 Std. -
Mo, 18.03. 13:00 0.6 l/m2 in 6 Std. -
Mo, 18.03. 7:00 2 l/m2 in 12 Std. -
Mo, 18.03. 1:00 2 l/m2 in 6 Std. -
Ortszeit Niederschlagsmenge Niederschlagsart
Mi, 20.03. 0:20 keine Meldung -
Mi, 20.03. 0:00 0.0 l/m2 in 1 Std. -
Di, 19.03. 23:50 keine Meldung -
Di, 19.03. 23:20 keine Meldung -
Di, 19.03. 23:00 0.0 l/m2 in 1 Std. -
Di, 19.03. 22:50 keine Meldung -
Di, 19.03. 22:20 keine Meldung -
Di, 19.03. 22:00 0.0 l/m2 in 1 Std. -
Di, 19.03. 21:20 keine Meldung -
Di, 19.03. 21:00 0.0 l/m2 in 1 Std. -
Ortszeit Stärke Spitze Richtung
km/h Bft. km/h Grad Sektor
Di, 19.03. 19:00 11 2 - - -
Di, 19.03. 13:00 18 3 - 310° NW
Di, 19.03. 7:00 7 2 - - -
Di, 19.03. 1:00 11 2 - 150° SO
Mo, 18.03. 19:00 7 2 - - -
Mo, 18.03. 13:00 4 1 - - -
Mo, 18.03. 7:00 11 2 - - -
Mo, 18.03. 1:00 14 3 76 250° W
Ortszeit Stärke Spitze Richtung
km/h Bft. km/h Grad Sektor
Mi, 20.03. 0:20 6 1 - 150° SO
Mi, 20.03. 0:00 7 2 - - -
Di, 19.03. 23:50 6 1 - 130° SO
Di, 19.03. 23:20 6 1 - 150° SO
Di, 19.03. 23:00 7 2 - - -
Di, 19.03. 22:50 6 1 - 180° S
Di, 19.03. 22:20 6 1 - 160° S
Di, 19.03. 22:00 7 2 - - -
Di, 19.03. 21:20 7 2 - 170° S
Di, 19.03. 21:00 11 2 - - -
Ortszeit Untergrenze Bedeckung Gattung
total tief tief mittel hoch
Di, 19.03. 19:00 1500 m 7/8 6/8 Sc Ac -
Di, 19.03. 13:00 750 m 7/8 7/8 Sc Ac -
Di, 19.03. 7:00 510 m 7/8 6/8 Sc - -
Di, 19.03. 1:00 1080 m 6/8 5/8 - - -
Mo, 18.03. 19:00 1200 m 5/8 5/8 Cu - -
Mo, 18.03. 13:00 360 m 7/8 5/8 St - -
Mo, 18.03. 7:00 960 m 8/8 5/8 Sc - -
Mo, 18.03. 1:00 1500 m 8/8 8/8 - - -
Ortszeit Bedeckungsgrad in Achtel und Wolkenuntergrenze
Mi, 20.03. 0:20 1-2(1260m) 8(1800m)
Mi, 20.03. 0:00 1(1260m) 8(2100m)
Di, 19.03. 23:50 1-2(1260m) 8(2100m)
Di, 19.03. 23:20 1-2(1800m) 5-7(2100m)
Di, 19.03. 23:00 2(1500m) 6(2100m)
Di, 19.03. 22:50 1-2(1500m) 5-7(2100m)
Di, 19.03. 22:20 1-2(1500m) 5-7(2100m)
Di, 19.03. 22:00 2(1500m) 5(2100m)
Di, 19.03. 21:20 1-2(1500m) 5-7(2100m)
Di, 19.03. 21:00 2(1500m) 5(2100m)
Ortszeit Luftdruck NN (hPa) Tendenz (hPa in 3 Std.)
Di, 19.03. 19:00 1030 + 1,8
Di, 19.03. 13:00 1028 0,0
Di, 19.03. 7:00 1027 + 1,0
Di, 19.03. 1:00 1026 + 1,0
Mo, 18.03. 19:00 1023 + 1,7
Mo, 18.03. 13:00 1021 + 1,3
Mo, 18.03. 7:00 1019 + 0,8
Mo, 18.03. 1:00 1018 + 1,8
Ortszeit Luftdruck NN (hPa) Tendenz (hPa in 3 Std.)
Mi, 20.03. 0:20 1031 keine Meldung
Mi, 20.03. 0:00 1033 + 1,0
Di, 19.03. 23:50 1031 keine Meldung
Di, 19.03. 23:20 1030 keine Meldung
Di, 19.03. 23:00 1033 + 1,2
Di, 19.03. 22:50 1030 keine Meldung
Di, 19.03. 22:20 1030 keine Meldung
Di, 19.03. 22:00 1032 + 1,6
Di, 19.03. 21:20 1030 keine Meldung
Di, 19.03. 21:00 1032 + 2,1
Ortszeit Schneehöhe (cm)
Di, 19.03. 19:00 -
Di, 19.03. 13:00 -
Di, 19.03. 7:00 0
Di, 19.03. 1:00 -
Mo, 18.03. 19:00 -
Mo, 18.03. 13:00 -
Mo, 18.03. 7:00 -
Mo, 18.03. 1:00 -
Ortszeit Schneehöhe (cm)
Mi, 20.03. 0:20 -
Mi, 20.03. 0:00 -
Di, 19.03. 23:50 -
Di, 19.03. 23:20 -
Di, 19.03. 23:00 -
Di, 19.03. 22:50 -
Di, 19.03. 22:20 -
Di, 19.03. 22:00 -
Di, 19.03. 21:20 -
Di, 19.03. 21:00 -
Link zu dieser Seite / Seite empfehlen

Das Wetter in ...